RH
91 96 96 94 95 97 94 96 93 89 86 89 97 97 95 90 83 85 69 13 55 53 62 77 81 61 57 53 52 42 40 35 31 30 24 27 27 25 23 22 26 31 29 37 44
76 83 89 94 92 94 94 93 98 98 96 97 86 98 93 85 97 71 30 26 10 27 72 91 82 61 50 47 52 40 38 32 24 24 26 22 24 24 25 24 26 35 36 55 42
90 96 92 94 93 92 90 86 90 91 90 89 92 98 94 89 84 48 92 85 47 94 94 88 82 83 48 42 43 42 35 28 28 31 26 27 26 26 24 25 21 25 47 70 43
91 90 93 95 92 94 71 58 87 88 84 82 91 90 98 93 46 80 94 93 97 100 98 91 96 93 53 43 38 42 32 30 28 34 34 29 28 22 24 23 21 22 40 64 38
86 87 94 96 96 92 72 58 94 87 55 29 75 90 98 90 72 44 31 75 83 91 94 80 92 90 63 37 37 38 33 30 32 34 33 34 32 29 26 24 26 29 48 55 49
92 89 89 89 84 85 71 62 89 73 39 28 32 90 89 93 58 54 56 37 58 75 88 96 88 74 59 45 37 34 36 32 33 34 33 32 31 31 28 24 26 35 44 48 50
92 93 85 82 79 78 68 64 88 48 38 35 30 89 85 76 60 49 56 60 51 58 64 89 90 82 64 52 42 38 42 36 32 30 33 33 36 32 31 29 24 31 34 41 48
99 92 89 86 77 77 72 58 49 48 38 33 53 86 86 75 78 78 68 60 60 56 60 72 84 94 72 49 38 41 42 52 34 31 30 34 34 24 26 28 26 22 29 40 46
99 99 97 84 83 76 67 50 47 42 32 54 90 84 64 65 72 70 80 78 78 80 62 53 94 96 72 69 55 40 48 48 40 27 30 33 34 22 23 28 26 24 21 34 42
100 99 100 82 81 78 57 48 39 38 54 69 97 95 76 56 69 75 70 70 61 81 65 74 84 89 94 79 92 62 45 36 40 32 32 30 32 18 18 24 26 23 21 21 32
100 99 100 90 87 78 58 53 58 55 55 41 36 68 50 42 49 48 50 54 56 65 63 53 91 87 73 77 57 44 38 39 32 29 32 33 27 24 18 22 22 20 22 21 21
100 100 100 97 95 74 65 72 82 60 76 50 56 58 54 55 60 54 51 47 39 58 50 56 92 62 56 55 70 55 48 43 35 29 34 31 31 22 19 18 19 19 20 21 21
100 100 99 98 99 77 68 62 58 65 65 38 48 51 54 64 62 59 56 46 41 37 50 59 48 48 59 61 73 66 58 56 41 34 31 33 37 29 23 22 22 20 18 18 20
100 100 99 100 99 88 70 58 46 50 62 32 48 56 61 65 62 47 54 55 41 42 37 68 41 44 60 70 68 85 52 47 45 41 52 35 43 28 24 24 22 21 21 19 18
100 100 99 99 97 84 76 49 42 68 68 25 47 61 46 28 32 38 52 48 56 48 40 55 51 46 69 60 61 73 53 54 53 56 45 45 46 30 21 26 22 19 19 20 19
100 99 100 100 100 99 69 42 48 56 62 32 37 32 26 23 26 41 46 52 49 53 44 46 58 52 38 53 56 58 67 62 59 73 84 54 47 38 29 25 21 18 18 19 19
100 98 100 100 100 96 76 46 67 67 26 28 36 32 32 28 28 47 39 36 57 78 68 40 40 51 53 67 58 73 84 98 98 98 87 50 58 44 26 22 21 20 18 17 17
100 100 100 100 98 97 73 73 89 44 30 26 36 33 38 45 42 49 35 33 33 79 88 75 48 50 62 55 76 68 90 77 84 79 54 38 61 42 29 25 26 22 20 18 18
100 100 100 100 99 99 85 91 79 42 30 40 35 45 45 56 48 45 29 32 52 81 93 91 61 48 47 44 41 74 90 72 80 73 42 42 37 26 28 28 26 24 21 20 20
98 100 100 100 99 99 91 76 67 36 39 40 56 46 65 46 57 58 52 34 42 60 99 89 91 41 61 52 47 48 53 90 96 96 85 46 37 32 30 28 28 27 27 25 23
99 99 100 100 100 99 89 81 67 45 42 47 51 58 53 66 66 65 68 47 40 62 81 98 92 53 63 98 81 73 68 70 57 68 76 58 37 24 24 24 23 22 24 25 25
99 98 100 99 98 88 85 79 55 47 47 51 54 55 56 56 74 70 69 61 55 84 83 71 94 82 60 75 97 50 49 67 86 100 59 40 31 23 19 20 21 21 20 25 21
99 98 99 98 93 90 94 93 77 55 49 51 57 58 54 68 87 74 67 52 69 77 99 89 82 80 54 80 95 99 49 42 43 32 50 46 33 23 25 24 24 23 26 22 23
97 94 99 99 98 75 92 91 86 58 59 52 53 59 76 77 57 85 87 44 52 44 57 84 88 83 82 95 97 96 95 78 57 58 45 38 30 23 23 25 24 26 26 26 24
99 95 73 94 96 81 92 92 73 76 62 62 60 63 63 69 61 68 52 50 43 57 67 85 86 83 86 67 92 94 96 96 96 58 48 35 35 26 21 22 24 26 27 26 27
97 97 96 95 75 95 91 86 81 75 62 54 61 45 41 60 54 59 59 60 62 52 69 75 67 58 58 44 63 76 63 85 93 98 41 31 29 23 22 22 23 23 26 26 24
99 98 97 88 91 94 83 67 81 72 57 50 44 45 49 46 44 51 57 54 52 68 74 69 63 60 57 51 51 54 41 44 75 82 76 46 32 24 27 27 23 23 27 25 22
Wind_Speed
19 18 19 21 19 22 19 20 20 20 22 22 24 22 23 23 26 25 31 38 24 25 26 17 12 7 13 14 15 16 11 17 23 16 14 4 10 10 8 14 15 13 2 8 27
22 22 21 19 20 21 21 22 23 21 22 22 20 23 23 20 26 32 24 24 30 34 26 20 18 13 15 16 13 16 16 21 15 16 10 12 9 10 9 18 15 13 7 18 28
22 22 21 18 20 19 21 23 22 23 23 22 21 23 23 20 23 5 9 9 15 23 21 21 21 18 23 20 24 18 22 21 13 19 20 15 9 8 11 19 21 24 19 24 30
25 24 20 20 20 21 22 24 23 24 25 24 24 20 22 16 7 4 12 5 6 7 21 29 25 23 17 22 24 21 27 30 24 14 20 14 8 7 13 12 19 18 22 27 33
26 24 21 21 21 23 26 28 24 24 24 23 25 23 18 13 28 17 22 10 9 6 9 29 32 25 24 18 24 24 23 26 30 25 27 18 17 12 10 13 9 11 23 29 31
24 24 22 22 23 25 28 28 26 27 25 23 23 21 19 23 21 19 13 15 16 13 9 12 14 24 18 29 21 14 29 30 26 29 31 22 24 16 13 6 11 12 23 28 30
26 23 22 23 25 26 26 26 28 27 25 27 23 19 23 35 16 18 18 21 18 20 21 13 13 14 11 16 30 26 16 17 27 30 21 25 29 29 24 18 11 14 18 25 27
30 24 23 24 24 25 24 27 27 26 28 29 24 17 22 21 18 23 21 23 21 26 25 23 15 16 25 15 12 21 23 22 25 21 29 20 27 27 33 23 20 16 17 22 25
35 27 25 26 22 23 24 26 25 26 26 18 11 13 16 10 8 11 8 9 15 15 19 21 17 10 11 19 14 17 21 31 23 22 20 29 23 28 26 20 23 24 20 20 24
37 30 27 23 20 22 23 24 24 19 13 10 6 5 12 4 1 4 9 11 8 12 14 23 17 10 7 15 15 22 28 24 25 21 22 24 24 22 27 34 28 24 24 23 23
42 32 27 21 20 21 21 21 7 5 8 7 18 17 25 22 21 26 22 19 17 15 17 22 13 20 26 21 29 25 27 27 19 15 17 25 25 23 22 19 29 34 33 29 28
44 33 26 20 18 17 15 5 3 8 13 25 29 27 28 18 12 15 16 16 17 18 16 18 24 28 27 28 29 30 25 22 17 20 13 12 21 23 23 25 27 28 29 31 33
49 33 23 21 15 14 11 7 9 11 7 12 4 5 3 7 7 6 3 6 21 23 19 23 30 30 31 28 25 27 29 24 16 11 15 13 19 21 22 23 30 34 32 31 31
45 33 22 20 12 13 8 5 8 10 5 3 2 2 1 2 6 11 9 8 8 20 21 19 29 28 31 30 25 25 27 24 19 11 10 17 14 22 23 20 23 28 35 38 36
43 30 24 22 11 11 4 3 6 1 5 2 4 6 2 7 12 2 9 6 17 20 17 23 20 33 29 37 28 16 22 26 23 22 18 12 9 17 14 17 23 24 30 32 36
36 25 24 21 18 9 4 1 2 1 8 1 2 1 10 11 10 9 7 7 12 14 21 27 20 16 36 27 29 17 18 21 18 15 15 25 19 17 20 24 19 18 26 31 34
32 24 26 24 17 11 7 5 2 4 2 2 0 5 15 16 11 4 10 11 8 7 16 23 28 24 23 21 29 29 19 8 8 8 8 22 18 21 19 23 21 21 26 29 31
25 23 22 22 15 14 14 3 5 5 6 3 4 14 6 6 4 6 11 13 8 6 13 11 19 26 15 31 20 30 16 15 13 7 13 18 15 18 27 24 18 24 25 21 26
27 21 23 21 15 16 10 3 5 5 2 2 9 5 3 4 4 8 10 15 4 3 5 4 12 6 19 30 29 21 25 10 1 7 11 10 20 13 7 16 22 20 23 23 24
25 23 23 21 17 18 3 6 6 6 4 2 3 3 5 6 7 4 5 6 3 2 2 4 8 12 8 23 31 33 18 18 8 8 7 9 17 10 20 18 17 21 21 29 27
19 12 19 22 22 11 4 7 6 11 9 6 4 5 9 8 5 4 6 11 9 2 4 6 5 6 5 8 21 23 19 13 12 12 7 6 7 7 15 19 19 21 25 25 24
19 4 23 27 5 5 7 6 5 6 9 8 6 11 14 8 7 6 7 5 12 9 8 4 4 7 12 6 15 30 31 27 10 9 8 11 12 8 15 18 19 18 22 13 20
15 6 23 28 5 7 2 1 6 7 11 5 8 10 5 7 5 8 7 4 5 3 6 4 2 7 6 4 7 4 29 25 25 19 21 17 14 5 3 10 6 9 10 13 13
9 4 7 17 9 7 6 4 5 10 12 11 9 10 9 7 9 5 3 5 9 12 14 11 5 7 8 5 5 8 14 14 26 18 20 19 22 13 6 4 8 10 7 9 12
11 6 10 7 13 11 12 8 10 6 13 10 6 11 5 4 8 6 5 11 7 3 5 2 7 13 10 14 9 15 12 12 11 26 25 20 27 19 17 10 4 5 8 8 13
13 7 7 4 17 18 16 14 16 11 10 11 13 12 10 12 13 12 9 4 5 5 8 5 4 12 14 11 5 13 16 13 12 11 29 29 29 20 18 16 10 7 7 7 11
15 13 7 11 9 11 12 18 17 14 15 20 13 11 10 14 12 11 9 15 16 15 11 7 4 7 8 10 18 11 10 15 9 12 13 26 30 16 17 21 21 13 11 11 13
Wind_Direction
329 332 327 329 327 324 332 317 313 311 308 313 321 320 313 311 304 298 273 264 246 250 255 255 266 246 210 222 216 210 229 237 235 235 242 224 222 217 233 221 197 194 248 152 171
323 323 320 320 318 321 321 320 321 320 317 312 309 313 316 309 309 294 311 280 266 251 241 243 254 238 216 217 212 212 223 235 242 234 248 246 249 235 200 201 197 184 186 152 166
312 313 314 313 310 316 316 319 315 315 317 311 305 309 314 314 312 338 23 3 268 227 240 244 249 245 232 222 214 223 235 230 240 236 241 260 261 228 224 209 200 192 177 167 173
301 304 305 305 310 311 315 317 314 314 313 308 307 305 308 310 276 136 68 42 120 227 250 240 236 227 232 225 224 236 231 242 242 227 233 238 258 233 229 215 218 212 186 175 180
292 295 299 301 302 304 310 311 306 308 310 305 307 308 307 281 252 240 292 260 202 219 281 223 218 219 226 227 229 228 242 237 240 240 238 238 253 260 253 244 245 196 184 187 189
287 288 292 293 292 295 302 305 305 307 310 306 301 300 287 274 270 283 285 279 258 258 276 223 211 222 246 237 224 220 237 244 237 239 238 242 248 237 240 244 224 200 198 197 196
288 284 286 288 288 292 298 300 303 307 308 302 292 285 267 248 264 269 278 283 279 274 267 261 240 223 224 252 240 239 242 238 236 235 238 239 249 237 243 252 246 218 212 207 206
285 278 281 289 285 286 293 300 303 309 306 296 288 273 265 273 266 275 282 290 280 264 254 250 242 254 238 244 249 226 234 246 230 228 229 220 245 236 235 237 239 230 218 211 208
275 270 270 287 283 289 297 302 306 307 303 300 280 239 268 277 260 275 255 288 292 272 242 237 232 220 222 225 230 219 222 230 240 215 219 220 242 241 228 226 238 233 220 215 214
263 260 259 280 280 289 301 308 313 301 286 290 245 230 251 282 339 214 262 287 308 298 228 217 212 228 190 206 207 216 226 233 230 219 216 225 233 239 227 228 232 232 225 220 216
262 256 252 268 277 289 305 329 345 289 288 258 262 250 276 283 274 269 266 280 285 244 228 207 215 217 216 201 220 221 232 233 222 221 211 224 231 232 229 222 227 232 230 224 225
258 249 242 257 266 285 302 310 252 299 291 293 266 265 266 275 283 284 253 248 233 242 237 234 224 216 221 211 220 223 235 243 247 215 211 217 235 236 230 231 225 226 225 226 226
258 238 235 245 251 271 283 298 309 325 275 293 252 244 284 196 232 273 196 236 238 247 238 230 231 222 213 218 222 221 224 230 238 189 225 241 245 240 238 239 235 233 232 226 224
247 226 225 229 235 246 247 272 309 320 285 255 229 203 80 236 256 274 253 249 229 249 236 254 241 237 224 227 213 220 211 215 227 190 214 200 249 223 228 216 226 225 227 230 230
236 214 220 215 191 183 221 277 319 28 305 95 132 140 317 328 315 172 309 266 254 256 235 232 240 218 232 223 213 237 211 214 214 236 247 215 249 238 211 222 223 220 221 226 231
221 206 210 206 208 199 167 283 104 223 248 99 138 340 339 326 297 293 298 277 266 266 248 254 272 274 228 234 220 185 212 211 222 222 232 225 224 234 228 225 227 220 221 224 229
205 204 203 203 188 156 143 125 106 213 40 159 242 343 322 302 301 290 314 307 278 274 248 247 241 251 265 258 223 208 190 175 202 209 221 204 218 231 222 229 218 220 223 225 229
191 198 206 192 183 158 138 99 194 240 249 317 347 322 288 344 295 312 303 303 278 305 272 267 244 215 232 237 223 220 197 201 197 182 220 203 217 229 224 237 215 238 230 227 229
181 191 189 184 171 168 131 172 215 230 234 280 316 279 256 220 314 305 289 284 271 53 318 297 253 290 243 225 227 219 214 225 120 318 234 175 238 241 209 222 220 217 220 218 218
177 176 177 174 170 170 147 219 225 222 202 225 274 248 279 306 318 310 293 276 273 108 129 308 294 259 279 243 220 223 202 192 205 190 209 194 231 231 192 209 209 220 226 228 233
180 152 175 183 171 159 212 208 233 228 219 223 200 265 269 289 260 269 267 288 271 270 233 261 252 250 298 243 197 203 210 219 212 227 227 231 221 184 205 213 206 213 220 217 225
164 160 168 172 159 197 216 176 224 219 215 239 244 249 261 263 260 259 253 253 336 310 282 223 283 283 267 234 286 215 204 197 192 153 218 237 233 165 217 210 210 216 222 203 225
137 110 170 170 200 204 99 174 237 229 232 235 231 224 234 252 263 240 268 320 33 342 321 322 258 304 285 131 300 268 205 212 220 224 205 211 217 119 218 225 205 211 211 211 211
136 137 166 203 232 203 179 203 223 231 247 235 254 253 247 269 263 288 341 301 292 298 283 288 229 250 296 339 308 299 309 293 203 214 220 222 239 192 192 212 197 193 190 194 196
169 188 180 187 210 199 167 182 201 217 222 213 225 236 263 264 272 268 284 324 309 323 334 75 307 310 320 303 278 281 299 300 293 219 218 204 221 224 225 238 120 138 167 159 171
163 165 179 194 211 197 186 201 206 218 227 220 235 254 274 254 249 275 297 294 278 304 341 322 283 322 305 297 307 286 270 257 271 292 221 226 238 210 227 251 263 148 148 181 188
212 189 178 179 180 183 205 213 205 220 240 233 233 259 249 258 274 275 274 273 270 282 290 286 290 333 295 336 313 280 246 212 219 236 234 215 230 217 211 222 233 233 196 215 223